User: anonymous   Login
Location: Maddington
(51.2000°N, 1.9167°W)
Time: 18:52:19
(UTC+00:00)
Language:

ISS - Orbit

View from above orbital plane
View from above orbital plane
View from above satellite
View from above satellite

Ground track
Ground track

The orbit data is extracted from the following two-line orbital elements,

1 25544U 98067A   20332.54319566  .00016717  00000-0  10270-3 0  9028
2 25544  51.6436 260.1795 0001803  79.4972 280.6381 15.49065471 17331
Epoch (UTC): 27 November 2020 13:02:12
Eccentricity: 0.0001803
inclination: 51.6436°
perigee height: 418 km
apogee height: 420 km
right ascension of ascending node: 260.1795°
argument of perigee: 79.4972°
revolutions per day: 15.49065471
mean anomaly at epoch: 280.6381°
orbit number at epoch: 1733

The dashed part of the orbit path shows where the satellite is in the earth's shadow,  

DLR